Regional Weather Roundup
Issued by NWS Glasgow, MT

Home | Current Version | Previous Version | Text Only | Print | Product List | Glossary On
Versions: 1 2 3 4 5 6 7 8 9 10 11 12 13 14 15 16 17 18 19 20 21 22 23 24 25 26 27 28 29 30 31 32 33 34 35 36 37 38 39 40 41 42 43 44 45 46 47 48 49 50
000
ASUS45 KGGW 290315
RWRGGW
HOURLY REGIONAL WEATHER ROUNDUP FOR NORTHEAST MONTANA
NATIONAL WEATHER SERVICE GLASGOW MONTANA
900 PM MDT THU MAY 28 2015

NOTE: "FAIR" INDICATES FEW OR NO CLOUDS BELOW 12,000 FEET WITH NO
SIGNIFICANT WEATHER AND/OR OBSTRUCTIONS TO VISISBILITY.

NORTHEAST MONTANA


CITY           SKY/WX    TMP DP  RH WIND       PRES   REMARKS
GLASGOW        CLOUDY    54  44  69 N17       30.15R
WOLF POINT     CLOUDY    55  45  68 NE13      30.13R
JORDAN           N/A     55  51  86 N18G28    30.13R
WINNETT          N/A     55  49  80 N18G26      N/A
SIDNEY         MOCLDY    61  46  59 N21G26    30.06R
GLENDIVE       CLOUDY    57  52  82 N21       30.06R
MALTA            N/A     52  43  71 NE12G21     N/A
SCOBEY           N/A     49  38  65 N15G21    30.12

FORT PECK REPORTS


CITY           SKY/WX    TMP DP  RH WIND       PRES   REMARKS
FORT PECK        N/A     53  46  77 N20G29      N/A
THE PINES        N/A     53  46  77 N15G26      N/A

SOUTHEAST MONTANA


CITY           SKY/WX    TMP DP  RH WIND       PRES   REMARKS
BILLINGS       LGT RAIN  55  51  86 N9        30.17R
MILES CITY     CLOUDY    58  51  78 N13       30.05R
BAKER          CLOUDY    59  53  80 N21G29    30.00R
LIVINGSTON     CLOUDY    52  44  74 S5        30.22R

CENTRAL MONTANA


CITY           SKY/WX    TMP DP  RH WIND       PRES   REMARKS
HAVRE          CLOUDY    52  43  71 NE3       30.26S
LEWISTOWN      CLOUDY    52  49  89 NE13G20   30.23R
GREAT FALLS    LGT RAIN  47  45  93 N16       30.29R FOG
CUT BANK       CLOUDY    46  42  86 N9        30.32R FOG
HELENA         CLOUDY    51  44  77 NW14      30.28R
BUTTE          CLOUDY    51  44  77 SE3       30.26R
BOZEMAN        CLOUDY    51  49  92 S3        30.23R

WESTERN MONTANA


CITY           SKY/WX    TMP DP  RH WIND       PRES   REMARKS
MISSOULA       CLOUDY    62  45  53 E10       30.18R
KALISPELL      NOT AVBL

NORTH DAKOTA


CITY           SKY/WX    TMP DP  RH WIND       PRES   REMARKS
WILLISTON      MOCLDY    55  46  71 N25G36    30.05R
DICKINSON      LGT RAIN  62  55  77 N9        29.96R
MINOT          MOCLDY    56  49  77 NW26G32   29.97R
BISMARCK       CLOUDY    69  56  62 N9        29.89R

SOUTHERN SASKATCHEWAN


CITY           SKY/WX    TMP DP  RH WIND       PRES   REMARKS
REGINA         PTCLDY    46  34  61 N14G26    30.20R
ESTEVAN        CLOUDY    48  43  81 N22G30    30.09R
SWIFT CURRENT  CLEAR     46  30  53 N10       30.23R



USA.gov is the U.S. government's official web portal to all federal, state and local government web resources and services.